BREEZE-M DEB, 41320

Orbit data source: Space-Track

BREEZE-M DEB, 41320 is space debris in HEO originally from a launch on Thu, 17 May 2012 UTC launched from the Tyuratam Missile And Space Complex (TTMTR). Debris objects in space refer to the collection of defunct objects orbiting the Earth. Examples of debris include non-operational satellites, rocket bodies, and fragments generated from explosions, collisions, or faulty payload assembly.

Loading next visibility...
Identifier
41320, 2012-026G
Orbit
HEO
Last TLE update
1 day ago
Origin
Manufacturer
Khrunichev
Mission
Spacecraft
Bus & Motor
Unknown
Mass
Unknown
Launch date (UTC)
2012-05-17 (13 years ago)
Launch vehicle
Unknown
Launch site
Tyuratam Missile And Space Complex (TTMTR)
Object type
Payload
Rocket body
Debris
Shape & HBR
Unknown
Radar Cross Section
RCS unknown

Expand to show TLE details & history

TLE from 1 day ago
0 BREEZE-M DEB
1 41320U 12026G   25183.57023473 -.00000070  00000-0  00000-0 0  9999
2 41320   9.8740 168.7903 4120381 345.7245   5.3351  1.76040627 61279
Epoch: 2025-07-02T13:41Z
TLE epoch observation values (Epoch: 2025-07-02T13:41:08.28Z)
Latitude
Longitude
42.63207°
Altitude
10,820.778 km
Speed
5.709 km/s
True Right ascension
11h 15m 03s
True Declination
0° 00' 00"
Sunlit
Object was in daylight at epoch
Visualization orbit readout
Latitude
-6.49939°
Longitude
-96.51904°
Altitude
24,991.032 km
Speed
3.414 km/s
Apparent Right ascension
02h 03m 08s
Apparent Declination
-16° 08' 57"
Sunlit
Object is in daylight
Visualization observer readout
Local Sidereal Time
01:33:14
Azimuth
171.382° S
Elevation
33.504°
Doppler factor
1
Orbital elements
Apogee altitude
34,535.559 km
Perigee altitude
10,658.014 km
Semi-major axis
28,974.923 km
Eccentricity
0.41204
Inclination
9.874°
RAAN
168.7903°
Arg. of periapsis
345.7245°
True anomaly
Unknown
Mean anomaly
5.3351°
Eccentric anomaly
Unknown
Mean motion
0.44006 °/min
Orbital period
818.07 mins
BSTAR
0
Loading maneuver chart data...
Loading SW <> Apogee altitude chart data...
Loading historical data...
Loading historical data...
Loading historical data...
Loading historical data...
Loading historical data...
Loading historical data...
Loading historical data...

BREEZE-M DEB Visibility forecast

Observer location: undefined°, undefined°

Span
Click to sort rows by Start time (UTC) header in descending order
Start Az.
Max El. time (UTC)
Max El. Az.
Max El.
End time (UTC)
End Az.
118 mins2025-07-03 13:46:22.041Z171.386° S2025-07-03 13:46:22.041Z171.386° S28.886°2025-07-03 15:44:22.041Z134.261° SE
363 mins2025-07-04 07:43:22.041Z258.066° W2025-07-04 10:23:22.041Z234.119° WSW30.808°2025-07-04 13:46:22.041Z236.058° WSW
|